{"data":{"norad_id":63970,"intl_designator":"2025-099U","name":"STARLINK-34084","alt_names":[],"object_type":"PAYLOAD","status":"ACTIVE","operator":null,"country":"US","launch_date":"2025-05-13","launch_site_code":"AFETR","launch_vehicle":null,"mission":null,"orbit_class":"UNKNOWN","rcs_meters":null,"size_class":null,"mass_kg":null,"dimensions":null,"purposes":["comms"],"wikipedia_slug":null,"has_3d_model":false,"image_url":null,"decayed_at":null,"tle_current":{"epoch":"2026-05-24T21:08:14.166528Z","epoch_age_seconds":75575,"freshness":"FRESH","line1":"1 63970U 25099U   26144.88071952  .00009988  00000+0  37195-3 0  9998","line2":"2 63970  43.0026 105.5012 0002022 262.6900  97.3722 15.27583917 58996","mean_motion":15.27583917,"eccentricity":0.0002022,"inclination_deg":43.0026,"raan_deg":105.5012,"arg_perigee_deg":262.69,"mean_anomaly_deg":97.3722,"bstar":0.00037195,"rev_number":5899,"period_min":94.266506996748,"perigee_km":481.65003770054,"apogee_km":484.42469661462,"semimajor_km":6861.1743671576,"source":"CELESTRAK","updated_at":"2026-05-25T13:38:20.214795Z"}}}